TimeCST,TemperatureF,Dew PointF,Humidity,Sea Level PressureIn,VisibilityMPH,Wind Direction,Wind SpeedMPH,Gust SpeedMPH,PrecipitationIn,Events,Conditions,WindDirDegrees,DateUTC
12:53 AM,48.9,48.0,97,30.01,-9999.0,Calm,Calm,-,N/A,,Overcast,0,2012-11-06 06:53:00
1:53 AM,48.9,48.0,97,30.03,-9999.0,North,3.5,-,N/A,,Overcast,10,2012-11-06 07:53:00
2:53 AM,48.9,48.0,97,30.03,-9999.0,Calm,Calm,-,N/A,,Overcast,0,2012-11-06 08:53:00
3:10 AM,48.2,48.2,100,30.03,-9999.0,Calm,Calm,-,N/A,,Overcast,0,2012-11-06 09:10:00
3:30 AM,48.2,46.4,93,30.02,-9999.0,Calm,Calm,-,N/A,,Overcast,0,2012-11-06 09:30:00
3:53 AM,48.9,46.9,93,30.03,-9999.0,North,3.5,-,N/A,,Overcast,360,2012-11-06 09:53:00
4:53 AM,48.9,46.9,93,30.04,-9999.0,Calm,Calm,-,N/A,,Overcast,0,2012-11-06 10:53:00
5:03 AM,48.2,46.4,93,30.05,-9999.0,NNE,3.5,-,N/A,,Overcast,20,2012-11-06 11:03:00
5:30 AM,48.2,46.4,93,30.05,-9999.0,Calm,Calm,-,N/A,,Overcast,0,2012-11-06 11:30:00
5:49 AM,48.2,46.4,93,30.04,-9999.0,Calm,Calm,-,N/A,,Overcast,0,2012-11-06 11:49:00
5:53 AM,48.0,46.0,93,30.05,-9999.0,Calm,Calm,-,N/A,,Overcast,0,2012-11-06 11:53:00
6:53 AM,46.9,45.0,93,30.07,-9999.0,Calm,Calm,-,N/A,,Overcast,0,2012-11-06 12:53:00
7:08 AM,48.2,46.4,93,30.08,-9999.0,NNE,4.6,-,N/A,,Overcast,20,2012-11-06 13:08:00
7:53 AM,48.9,46.9,93,30.10,-9999.0,NNW,3.5,-,N/A,,Mostly Cloudy,330,2012-11-06 13:53:00
8:26 AM,50.0,46.4,87,30.11,-9999.0,Calm,Calm,-,N/A,,Mostly Cloudy,0,2012-11-06 14:26:00
8:46 AM,51.8,46.4,82,30.11,-9999.0,Calm,Calm,-,N/A,,Mostly Cloudy,0,2012-11-06 14:46:00
8:53 AM,51.1,46.9,86,30.10,-9999.0,Calm,Calm,-,N/A,,Overcast,0,2012-11-06 14:53:00
9:05 AM,51.8,46.4,82,30.10,-9999.0,Calm,Calm,-,N/A,,Overcast,0,2012-11-06 15:05:00
9:29 AM,53.6,46.4,77,30.11,-9999.0,Variable,4.6,-,N/A,,Overcast,0,2012-11-06 15:29:00
9:53 AM,53.1,46.0,77,30.12,-9999.0,Variable,4.6,-,N/A,,Mostly Cloudy,0,2012-11-06 15:53:00
10:09 AM,53.6,46.4,77,30.11,-9999.0,North,-9999.0,-,N/A,,Unknown,0,2012-11-06 16:09:00
10:53 AM,-9999,-9999,N/A,30.11,-9999.0,North,-9999.0,-,N/A,,Unknown,0,2012-11-06 16:53:00
11:36 AM,55.4,46.4,72,30.10,-9999.0,Calm,Calm,-,N/A,,Overcast,0,2012-11-06 17:36:00
11:50 AM,55.4,44.6,67,30.09,-9999.0,Calm,Calm,-,N/A,,Overcast,0,2012-11-06 17:50:00
11:53 AM,55.0,45.0,69,30.09,-9999.0,Calm,Calm,-,N/A,,Overcast,0,2012-11-06 17:53:00
12:53 PM,55.9,45.0,67,30.06,-9999.0,West,6.9,-,N/A,,Overcast,280,2012-11-06 18:53:00
1:53 PM,57.9,44.1,60,30.04,-9999.0,Variable,6.9,-,N/A,,Mostly Cloudy,0,2012-11-06 19:53:00
2:53 PM,60.1,44.1,55,30.01,-9999.0,West,5.8,-,N/A,,Scattered Clouds,270,2012-11-06 20:53:00
3:53 PM,60.1,44.1,55,30.01,-9999.0,West,5.8,-,N/A,,Clear,270,2012-11-06 21:53:00
4:53 PM,57.0,46.0,67,30.01,-9999.0,Calm,Calm,-,N/A,,Clear,0,2012-11-06 22:53:00
5:53 PM,51.1,46.9,86,30.02,-9999.0,Calm,Calm,-,N/A,,Clear,0,2012-11-06 23:53:00
6:53 PM,52.0,46.0,80,30.04,-9999.0,Calm,Calm,-,N/A,,Clear,0,2012-11-07 00:53:00
7:53 PM,48.9,46.0,90,30.04,-9999.0,Calm,Calm,-,N/A,,Clear,0,2012-11-07 01:53:00
8:53 PM,46.0,44.1,93,30.05,-9999.0,West,3.5,-,N/A,,Clear,260,2012-11-07 02:53:00
9:53 PM,48.9,45.0,86,30.04,-9999.0,West,3.5,-,N/A,,Clear,270,2012-11-07 03:53:00
10:53 PM,50.0,43.0,77,30.05,-9999.0,West,4.6,-,N/A,,Clear,270,2012-11-07 04:53:00
11:53 PM,48.0,43.0,83,30.06,-9999.0,West,3.5,-,N/A,,Clear,270,2012-11-07 05:53:00